CAPE
nan nan nan nan nan nan nan nan nan nan nan nan nan nan nan nan nan nan nan nan nan nan nan nan nan nan nan 15 33 33 39 39 42 42 44 50 54 54 60 65 65 69 73 75 75 76 79 82 82 84 89 96 104 104 111 125 125 139 149 161 161 173 183 199 199 214 226 235 241 241 244 242 235 235 228 214 210 210 211 210 210 208 196 183 183 167
nan nan nan nan nan nan nan nan nan nan nan nan nan nan nan nan nan nan nan nan nan nan nan nan nan nan nan nan 23 23 29 34 39 39 44 48 55 55 58 64 64 66 70 71 71 73 75 81 81 84 93 97 106 106 113 119 119 129 137 141 141 155 170 180 180 194 202 212 213 213 216 208 206 206 194 191 196 196 208 211 211 210 214 205 205 206
nan nan nan nan nan nan nan nan nan nan nan nan nan nan nan nan nan nan nan nan nan nan nan nan nan nan nan nan 16 16 24 32 36 36 42 46 49 49 51 57 57 60 65 69 69 70 75 83 83 86 91 101 106 106 113 118 118 122 127 131 131 136 142 154 154 164 173 178 182 182 180 177 170 170 167 174 186 186 198 204 204 206 213 213 213 222
nan nan nan nan nan nan nan nan nan nan nan nan nan nan nan nan nan nan nan nan nan nan nan nan nan nan nan nan 2 2 23 31 39 39 40 40 42 42 45 50 50 56 61 69 69 71 79 82 82 92 95 98 101 101 105 109 109 110 116 123 123 128 130 129 129 135 137 144 144 144 146 144 145 145 152 166 180 180 190 197 197 192 195 198 198 215
nan nan nan nan nan nan nan nan nan nan nan nan nan nan nan nan nan nan nan nan nan nan nan nan nan nan nan nan nan nan 18 31 34 34 34 35 38 38 43 51 51 56 62 69 69 77 80 83 83 87 87 92 95 95 99 101 101 105 108 111 111 114 118 117 117 118 119 124 124 124 129 129 135 135 145 159 169 169 176 174 174 173 172 186 186 202
nan nan nan nan nan nan nan nan nan nan nan nan nan nan nan nan 0 0 nan nan nan nan nan nan nan nan nan nan nan nan 13 24 25 25 28 31 37 37 44 53 53 59 65 71 71 75 78 84 84 85 83 89 91 91 94 92 92 94 94 97 97 97 102 103 103 105 106 106 107 107 109 115 119 119 129 135 149 149 155 155 155 158 160 168 168 180
nan nan nan nan nan nan nan nan nan nan nan nan nan nan nan nan nan nan nan nan nan nan nan nan nan nan nan nan nan nan 10 13 20 20 23 31 38 38 45 53 53 59 67 71 71 70 70 73 73 74 76 78 83 83 83 83 83 83 83 87 87 87 93 93 93 95 96 95 95 95 95 97 101 101 105 118 126 126 133 143 143 147 152 163 163 164
nan nan nan nan nan nan nan nan nan nan nan nan 4 4 nan nan nan nan nan nan nan nan nan nan nan nan nan nan nan nan nan nan nan nan nan 2 20 20 35 52 52 59 60 53 53 49 46 44 44 51 55 61 65 65 66 65 65 65 61 63 63 66 70 75 75 79 82 79 77 77 79 86 90 90 99 112 120 120 131 147 147 156 176 187 187 193
nan nan nan nan nan nan nan nan nan nan nan 2 0 0 nan nan nan nan nan nan nan nan nan nan nan nan nan nan nan nan nan nan nan nan nan nan nan nan 17 41 41 47 47 41 41 39 36 37 37 42 47 50 53 53 52 52 52 47 45 50 50 55 64 71 71 78 76 77 78 78 86 98 110 110 124 129 137 137 145 152 152 168 186 207 207 220
nan nan nan nan nan nan nan nan 0 0 1 nan nan nan nan nan nan nan nan nan nan nan nan nan nan nan nan nan nan nan nan nan 26 26 42 22 45 45 28 19 19 13 31 31 31 29 27 30 30 34 37 40 43 43 42 37 37 34 35 41 41 48 59 68 68 76 78 85 92 92 108 118 131 131 140 145 145 145 153 149 149 167 192 211 211 222
nan nan nan nan nan nan 1 2 6 6 nan nan nan nan nan nan nan nan nan nan nan nan nan nan nan nan nan nan nan nan nan nan nan nan 4 14 23 23 21 14 14 13 19 20 20 18 18 22 22 27 30 31 31 31 29 25 25 28 29 35 35 45 56 68 68 77 83 97 114 114 126 140 144 144 148 152 151 151 151 150 150 161 177 193 193 202
1 0 3 7 7 11 13 13 2 2 nan nan nan nan nan nan nan nan nan nan nan nan nan nan nan nan nan nan nan nan nan nan nan nan nan nan nan nan nan nan nan nan 0 3 3 6 10 16 16 19 19 17 24 24 21 17 17 24 28 36 36 46 63 72 72 87 100 114 127 127 136 141 142 142 151 152 151 151 150 140 140 144 156 167 167 178
8 12 14 16 16 10 7 2 nan nan nan nan nan nan nan nan nan nan nan nan nan nan nan nan nan nan nan nan nan nan nan nan nan nan nan nan nan nan nan nan nan nan nan nan nan nan 0 10 10 13 15 13 15 15 18 17 17 24 29 40 40 54 70 86 86 97 105 115 124 124 132 137 140 140 142 147 147 147 141 136 136 138 141 146 146 158
11 6 6 3 3 2 1 0 0 0 nan nan nan nan nan nan nan nan nan nan nan nan nan nan nan nan nan nan nan nan nan nan nan nan nan nan nan nan nan nan nan nan nan nan nan nan nan nan nan nan 4 4 6 6 8 16 16 25 33 46 46 60 73 87 87 97 107 109 120 120 125 130 136 136 135 137 136 136 134 136 136 130 131 138 138 143
6 2 1 3 3 3 1 1 0 0 0 nan nan nan nan nan nan nan nan nan nan nan nan nan nan nan nan nan nan nan nan nan nan nan nan nan nan nan nan nan nan nan nan nan nan nan nan nan nan nan nan nan nan nan 3 13 13 35 38 51 51 61 72 85 85 96 104 110 117 117 121 125 128 128 130 131 133 133 130 127 127 128 125 127 127 132
3 5 7 9 9 5 2 0 0 0 nan nan nan nan nan nan nan nan nan nan nan nan nan nan nan nan nan nan nan nan nan nan nan nan nan nan nan nan nan nan nan nan nan nan nan nan nan nan nan nan nan nan 7 7 16 22 22 36 42 52 52 58 68 77 77 94 102 108 114 114 118 121 122 122 127 127 124 124 124 124 124 120 122 122 122 122
8 11 15 13 13 4 1 nan nan nan nan nan nan nan nan nan nan nan nan nan nan nan nan nan nan nan nan nan nan nan nan nan nan nan nan nan nan nan nan nan nan nan nan nan nan nan nan nan nan nan nan 0 14 14 19 27 27 36 43 50 50 56 66 78 78 91 101 105 107 107 114 116 120 120 119 118 114 114 118 113 113 116 116 115 115 119
13 15 11 4 4 1 0 0 nan nan nan nan nan nan nan nan nan nan nan nan nan nan nan nan nan nan nan nan nan nan nan nan nan nan nan nan nan nan nan nan nan nan nan nan nan nan nan nan nan nan nan 12 19 19 23 28 28 35 41 47 47 53 62 72 72 79 92 102 105 105 108 110 113 113 112 110 109 109 107 109 109 108 108 110 110 110
15 8 3 0 0 nan 0 nan 0 0 0 nan nan nan nan nan nan nan nan nan nan nan nan nan nan nan nan 0 nan nan nan nan nan nan nan nan nan nan nan nan nan nan nan nan nan nan nan nan nan nan 7 18 22 22 24 29 29 34 40 46 46 53 59 70 70 77 82 90 95 95 99 105 106 106 104 102 100 100 99 97 97 100 94 96 96 97
7 2 0 nan nan 0 nan 1 0 0 1 nan nan nan nan nan nan nan nan nan nan nan nan nan nan nan nan nan nan nan nan nan nan nan nan nan nan nan nan nan nan nan nan nan nan nan nan nan nan nan 5 15 22 22 25 29 29 33 38 44 44 50 57 65 65 72 79 82 90 90 94 99 101 101 97 94 89 89 89 86 86 86 84 82 82 81
1 1 nan nan nan 0 1 0 nan nan 0 nan nan nan nan nan nan nan nan nan nan nan nan nan nan nan nan nan nan nan nan nan nan nan nan nan nan nan nan nan nan nan nan nan nan nan nan nan nan nan nan 16 24 24 28 31 31 34 38 41 41 47 51 61 61 68 75 80 86 86 85 92 92 92 87 83 75 75 75 74 74 75 71 71 71 68
0 0 nan 0 0 1 7 1 2 2 0 nan nan nan nan nan nan nan nan nan nan nan nan nan nan nan nan nan nan nan nan nan nan nan nan nan nan nan nan nan nan nan nan nan nan nan nan nan nan nan 0 23 29 29 29 31 31 34 36 38 38 44 50 54 54 64 71 76 81 81 82 86 82 82 78 75 71 71 70 68 68 66 62 64 64 62
nan 0 1 1 1 1 3 nan nan nan nan nan nan nan nan nan nan nan nan nan nan nan nan nan nan nan nan nan nan nan nan nan nan nan nan nan nan nan nan nan nan nan nan nan nan nan nan nan nan nan 3 31 29 29 30 31 31 32 34 36 36 41 46 51 51 60 67 72 76 76 78 79 77 77 71 68 65 65 62 62 62 62 59 59 59 60
1 0 1 nan nan 0 nan nan nan nan nan nan nan nan nan nan nan nan nan nan nan nan nan nan nan nan nan nan nan nan nan nan nan nan nan nan nan nan nan nan nan nan nan nan nan nan nan nan nan nan nan 21 27 27 29 28 28 31 31 34 34 39 41 49 49 58 66 67 69 69 70 71 69 69 67 65 63 63 59 59 59 58 58 55 55 58
0 0 nan 0 0 3 2 2 7 7 9 7 1 1 nan nan 0 0 nan nan nan nan 0 0 0 0 nan 2 nan nan nan nan nan nan nan nan nan nan nan nan nan nan nan nan nan nan nan nan nan nan nan 2 22 22 26 27 27 27 30 34 34 37 39 46 46 53 62 65 63 63 64 65 65 65 63 60 59 59 54 56 56 55 54 53 53 51
8 9 9 19 19 57 81 111 124 124 77 8 nan nan nan nan nan nan nan nan nan 1 2 1 1 0 0 nan nan nan nan nan nan nan nan nan nan nan nan nan nan nan nan nan nan nan nan nan nan nan nan nan 14 14 21 24 24 26 28 33 33 34 36 40 40 46 53 56 61 61 61 61 61 61 61 56 57 57 54 53 53 53 49 47 47 46
39 47 63 79 79 96 113 111 85 85 68 40 10 10 3 1 1 1 3 2 2 2 1 1 1 0 0 nan nan nan nan nan nan nan nan nan nan nan nan nan nan nan nan nan nan nan nan nan nan nan nan nan nan nan 15 21 21 26 28 26 26 28 30 35 35 40 46 51 55 55 58 58 58 58 57 56 53 53 54 51 51 50 45 41 41 41
37 45 57 72 72 84 74 55 43 43 42 45 53 53 28 6 3 3 3 1 1 2 1 1 1 nan nan nan nan nan nan nan nan nan nan nan nan nan nan nan nan nan nan nan nan nan 7 1 1 nan nan nan nan nan 1 19 19 22 23 19 19 22 25 30 30 35 40 44 51 51 53 54 56 56 55 53 55 55 53 51 51 51 46 33 33 9
18 35 52 62 62 47 30 22 21 21 27 32 41 41 27 4 3 3 1 0 0 2 2 3 3 0 nan nan nan nan nan nan nan nan nan nan nan nan nan nan nan nan nan nan nan nan nan nan nan nan nan nan nan nan nan 10 10 12 16 17 17 18 20 24 24 29 35 40 47 47 51 53 53 53 51 51 52 52 50 48 48 48 35 22 22 6
6 34 25 13 13 6 2 nan 6 6 21 28 30 30 23 3 1 1 1 1 1 1 2 2 2 1 0 nan nan nan nan nan nan nan nan nan nan nan nan nan nan nan nan nan nan nan nan nan nan nan nan nan nan nan nan nan nan nan 0 11 11 11 16 19 19 26 31 37 42 42 44 45 46 46 45 44 45 45 49 49 49 35 15 5 5 2
nan nan nan nan nan nan nan nan nan nan 17 24 24 24 12 0 nan nan nan nan nan 0 0 1 1 1 0 nan nan nan nan nan nan nan nan nan nan nan nan nan nan nan nan nan nan nan nan nan nan nan nan nan nan nan nan nan nan nan nan nan nan nan 9 15 15 19 26 30 32 32 35 36 38 38 37 40 43 43 43 46 46 31 7 3 3 2
nan nan nan nan nan nan nan nan nan nan nan 0 0 0 4 4 2 2 1 1 1 0 0 0 0 0 0 nan nan nan nan nan nan nan nan nan nan nan nan nan nan nan nan nan nan nan nan nan nan nan nan nan nan nan nan nan nan nan nan nan nan nan nan 3 3 4 4 12 17 17 19 19 23 23 24 30 33 33 35 39 39 33 9 2 2 2
nan nan nan nan nan nan nan nan nan nan 0 nan 0 0 nan 0 5 5 2 0 0 1 0 nan nan 0 0 0 nan nan nan nan 0 0 5 nan nan nan nan nan nan nan nan nan nan nan nan nan nan nan nan nan nan nan nan nan nan nan nan nan nan nan nan nan nan nan nan 0 1 1 10 12 15 15 18 22 25 25 32 33 33 35 27 2 2 4
nan nan nan nan nan nan nan nan nan nan nan 0 1 1 0 0 0 0 1 1 1 0 nan nan nan nan nan nan nan nan nan nan 3 3 4 nan nan nan nan nan nan nan nan nan nan nan nan nan nan nan nan nan nan nan nan nan nan nan nan nan nan nan nan nan nan nan nan nan nan nan nan nan 3 3 6 13 18 18 26 34 34 38 40 23 23 11
nan nan nan nan nan nan nan nan nan nan nan nan 0 0 0 0 nan nan 0 0 0 0 nan nan nan nan nan nan nan nan nan nan 0 0 8 nan nan nan nan nan nan nan nan nan nan nan nan nan nan 0 nan nan nan nan nan nan nan nan nan nan nan nan nan nan nan nan nan nan nan nan nan nan nan nan nan 2 15 15 30 36 36 40 41 44 44 30
nan nan nan nan nan nan nan nan nan nan nan nan nan nan nan nan nan nan nan nan nan 0 1 0 0 nan nan nan nan nan nan nan nan nan 8 nan nan nan nan nan nan nan nan nan nan nan nan nan nan nan 1 nan nan nan nan nan nan nan nan nan nan nan nan nan nan nan nan nan nan nan nan nan nan nan nan 7 25 25 31 34 34 34 34 37 37 37
nan 0 nan nan nan nan nan nan nan nan nan nan nan nan nan nan nan nan nan nan nan nan nan 1 1 0 3 nan nan nan nan nan nan nan nan nan nan nan nan nan nan nan nan nan nan nan nan nan nan nan nan nan nan nan nan nan nan nan nan nan nan nan nan nan nan nan nan nan nan nan nan nan nan nan nan 11 13 13 21 28 28 23 28 30 30 34
0 0 0 nan nan nan nan nan nan nan nan nan nan nan nan nan nan nan nan nan nan nan nan nan nan nan nan 4 nan nan nan nan nan nan nan nan nan nan nan nan nan nan nan nan nan nan nan nan nan nan nan nan 0 0 nan nan nan nan nan nan nan nan nan nan nan nan nan nan nan nan nan nan nan nan nan nan nan nan nan nan nan 1 18 19 19 29
0 0 0 0 0 0 nan nan nan nan nan nan nan nan nan nan nan nan nan nan nan nan nan nan nan nan nan nan nan nan nan nan nan nan nan nan nan nan nan nan nan nan nan nan nan nan nan nan nan nan nan nan nan nan nan nan nan nan nan nan nan nan nan nan nan nan nan nan nan nan nan nan nan nan nan nan nan nan nan nan nan nan nan nan nan 4
1 1 0 2 2 1 0 nan nan nan nan 0 1 1 1 0 nan nan nan nan nan nan nan nan nan nan nan nan nan nan nan nan nan nan nan nan nan nan nan nan nan nan nan nan nan nan nan nan nan nan nan nan nan nan nan nan nan nan 1 nan nan nan nan nan nan nan nan nan nan nan nan nan nan nan nan nan nan nan nan nan nan nan nan nan nan nan
3 0 0 0 0 1 1 1 0 0 0 0 nan nan nan nan nan nan nan nan nan nan nan nan nan nan nan nan nan nan nan nan nan nan nan nan nan nan nan nan nan nan nan nan nan nan nan nan nan nan nan nan nan nan nan nan nan 1 8 0 0 nan nan nan nan nan nan nan nan nan nan nan nan nan nan nan nan nan nan nan nan nan nan nan nan nan
8 2 0 nan nan nan nan 0 1 1 1 nan nan nan nan nan nan nan nan nan nan nan nan nan nan nan nan nan nan nan nan nan nan nan nan nan nan nan nan nan nan nan nan nan nan nan nan nan nan nan nan nan nan nan nan nan nan 0 3 nan nan nan 1 nan nan nan nan nan nan nan 2 0 nan nan nan nan nan nan nan nan nan nan nan nan nan nan
1 nan nan nan nan nan 0 1 1 1 0 nan nan nan nan nan nan nan nan nan nan nan nan nan nan nan nan nan nan nan nan nan nan nan nan nan nan nan nan nan nan nan nan nan nan nan nan nan nan nan nan nan nan nan nan nan nan nan nan nan nan nan nan nan nan nan nan nan nan nan nan nan nan nan nan nan nan nan nan nan nan 7 7 nan nan nan
nan nan nan nan nan nan 0 nan nan nan nan nan nan nan nan nan nan nan nan nan nan nan nan nan nan nan nan nan nan nan nan nan nan nan nan nan nan nan nan nan nan nan nan nan nan nan nan nan nan nan nan nan nan nan nan nan nan nan nan nan nan nan nan nan nan nan nan nan nan nan nan nan nan nan nan nan nan nan nan nan nan nan nan nan nan nan
nan nan nan nan nan 0 nan nan nan nan nan nan nan nan nan nan nan nan nan nan nan nan nan nan nan nan nan nan nan nan nan nan nan nan nan nan nan nan nan nan nan nan nan nan nan nan nan nan nan nan nan nan nan nan nan nan nan nan nan 0 0 nan nan nan nan nan nan nan nan nan nan nan nan nan nan nan nan nan nan nan nan nan nan nan nan nan
nan nan nan nan nan nan nan nan nan nan nan nan nan nan nan nan nan nan nan nan nan nan nan nan nan nan nan nan nan nan nan nan nan nan nan nan nan nan nan nan nan nan nan nan nan nan nan nan nan nan nan nan nan nan nan nan nan nan nan nan nan nan nan nan nan nan nan nan nan nan nan nan nan nan nan nan nan nan nan nan nan nan nan nan nan nan
nan nan nan nan nan nan nan nan nan nan nan nan nan nan nan nan nan nan nan nan nan nan nan nan nan nan nan nan nan nan nan nan nan nan nan nan nan nan nan nan nan nan nan nan nan nan nan nan nan nan nan nan nan nan nan nan nan nan nan nan nan nan nan nan nan nan nan nan nan nan nan nan nan nan nan nan nan nan nan nan nan nan nan nan nan nan
nan nan nan nan nan nan nan nan nan nan nan nan nan nan nan nan nan nan nan nan nan nan nan nan nan nan nan nan nan nan nan nan nan nan nan nan nan nan nan nan nan nan nan nan nan nan nan nan nan nan nan nan nan nan nan nan nan nan nan nan nan nan nan nan nan nan nan nan nan nan nan nan nan nan nan nan nan nan nan nan nan nan nan nan nan nan
nan nan nan nan nan nan nan nan nan nan nan nan nan nan nan nan 8 8 nan nan nan nan nan nan nan nan nan nan nan nan nan nan nan nan nan nan nan nan nan nan nan nan nan nan nan nan nan nan nan nan nan nan nan nan nan nan nan nan nan nan nan nan nan nan nan nan nan nan nan nan nan nan nan nan nan nan nan nan nan nan nan nan nan nan nan nan
nan nan nan nan nan nan nan nan nan nan nan nan nan nan nan nan nan nan nan nan nan nan nan nan nan nan nan nan nan nan nan nan nan nan nan nan nan nan nan nan nan nan nan nan nan nan nan nan nan nan nan nan nan nan nan nan nan nan nan nan nan nan nan nan nan nan nan nan nan nan nan nan nan nan nan nan nan nan nan nan nan nan nan nan nan nan
nan nan nan nan nan nan nan nan nan nan nan nan nan nan nan nan nan nan nan nan nan nan nan nan nan nan nan nan nan nan nan nan nan nan nan nan nan nan nan nan nan nan nan nan nan nan nan nan nan nan nan 9 3 3 nan nan nan nan nan nan nan nan nan nan nan nan nan nan nan nan nan nan nan nan nan nan nan nan nan nan nan nan nan nan nan nan
CIN
nan nan nan nan nan nan nan nan nan nan nan nan nan nan nan nan nan nan nan nan nan nan nan nan nan nan nan 0 0 0 0 0 0 0 0 0 0 0 0 0 0 0 0 0 0 0 0 0 0 0 0 0 0 0 0 0 0 0 0 0 0 0 0 0 0 0 0 0 0 0 0 0 0 0 0 0 0 0 0 0 0 0 0 0 0 0
nan nan nan nan nan nan nan nan nan nan nan nan nan nan nan nan nan nan nan nan nan nan nan nan nan nan nan nan 0 0 0 0 0 0 0 0 0 0 0 0 0 0 0 0 0 0 0 0 0 0 0 0 0 0 0 0 0 0 0 0 0 0 0 0 0 0 0 0 0 0 0 0 0 0 0 0 0 0 0 0 0 0 0 0 0 0
nan nan nan nan nan nan nan nan nan nan nan nan nan nan nan nan nan nan nan nan nan nan nan nan nan nan nan nan 0 0 0 0 0 0 0 0 0 0 0 0 0 0 0 0 0 0 0 0 0 0 0 0 0 0 0 0 0 0 0 0 0 0 0 0 0 0 0 0 0 0 0 0 0 0 0 0 0 0 0 0 0 0 0 0 0 0
nan nan nan nan nan nan nan nan nan nan nan nan nan nan nan nan nan nan nan nan nan nan nan nan nan nan nan nan -1 -1 0 0 0 0 0 0 0 0 0 0 0 0 0 0 0 0 0 0 0 0 0 0 0 0 0 0 0 0 0 0 0 0 0 0 0 0 0 0 0 0 0 0 0 0 0 0 0 0 0 0 0 0 0 0 0 0
nan nan nan nan nan nan nan nan nan nan nan nan nan nan nan nan nan nan nan nan nan nan nan nan nan nan nan nan nan nan 0 0 0 0 0 0 0 0 0 0 0 0 0 0 0 0 0 0 0 0 0 0 0 0 0 0 0 0 0 0 0 0 0 0 0 0 0 0 0 0 0 0 0 0 0 0 0 0 0 0 0 0 0 0 0 0
nan nan nan nan nan nan nan nan nan nan nan nan nan nan nan nan -41 -41 nan nan nan nan nan nan nan nan nan nan nan nan 0 0 0 0 0 0 0 0 0 0 0 0 0 0 0 0 0 0 0 0 0 0 0 0 0 0 0 0 0 0 0 0 0 0 0 0 0 0 0 0 0 0 0 0 0 0 0 0 0 0 0 0 0 0 0 0
nan nan nan nan nan nan nan nan nan nan nan nan nan nan nan nan nan nan nan nan nan nan nan nan nan nan nan nan nan nan 0 0 0 0 0 0 0 0 0 0 0 0 0 0 0 0 0 0 0 0 0 0 0 0 0 0 0 0 0 0 0 0 0 0 0 0 0 0 0 0 0 0 0 0 0 0 0 0 0 0 0 0 0 0 0 0
nan nan nan nan nan nan nan nan nan nan nan nan -9 -9 nan nan nan nan nan nan nan nan nan nan nan nan nan nan nan nan nan nan nan nan nan -0 0 0 0 0 0 0 0 0 0 0 0 0 0 0 0 0 0 0 0 0 0 0 0 0 0 0 0 0 0 0 0 0 0 0 0 0 0 0 0 0 0 0 0 0 0 0 0 0 0 0
nan nan nan nan nan nan nan nan nan nan nan -22 -34 -34 nan nan nan nan nan nan nan nan nan nan nan nan nan nan nan nan nan nan nan nan nan nan nan nan 0 0 0 0 0 0 0 0 0 0 0 0 0 0 0 0 0 0 0 0 0 0 0 0 0 0 0 0 0 0 0 0 0 0 0 0 0 0 0 0 0 0 0 0 0 0 0 0
nan nan nan nan nan nan nan nan -26 -26 -61 nan nan nan nan nan nan nan nan nan nan nan nan nan nan nan nan nan nan nan nan nan 0 0 0 0 0 0 0 0 0 0 0 0 0 0 0 0 0 0 0 0 0 0 0 0 0 0 0 0 0 0 0 0 0 0 0 0 0 0 0 0 0 0 0 0 0 0 0 0 0 0 0 0 0 0
nan nan nan nan nan nan -35 -21 -21 -21 nan nan nan nan nan nan nan nan nan nan nan nan nan nan nan nan nan nan nan nan nan nan nan nan -7 -0 0 0 0 0 0 0 0 0 0 0 0 0 0 0 0 0 0 0 0 0 0 0 0 0 0 0 0 0 0 0 0 0 0 0 0 0 0 0 0 0 0 0 0 0 0 0 0 0 0 0
-17 -27 -20 -13 -13 -9 -10 -14 -27 -27 nan nan nan nan nan nan nan nan nan nan nan nan nan nan nan nan nan nan nan nan nan nan nan nan nan nan nan nan nan nan nan nan -0 0 0 0 0 0 0 0 0 0 0 0 0 0 0 0 0 0 0 0 0 0 0 0 0 0 0 0 0 0 0 0 0 0 0 0 0 0 0 0 0 0 0 0
-12 -9 -8 -8 -8 -10 -10 -12 nan nan nan nan nan nan nan nan nan nan nan nan nan nan nan nan nan nan nan nan nan nan nan nan nan nan nan nan nan nan nan nan nan nan nan nan nan nan 0 0 0 0 0 0 0 0 0 0 0 0 0 0 0 0 0 0 0 0 0 0 0 0 0 0 0 0 0 0 0 0 0 0 0 0 0 0 0 0
-7 -12 -10 -11 -11 -14 -13 -14 -14 -14 nan nan nan nan nan nan nan nan nan nan nan nan nan nan nan nan nan nan nan nan nan nan nan nan nan nan nan nan nan nan nan nan nan nan nan nan nan nan nan nan 0 0 0 0 0 0 0 0 0 0 0 0 0 0 0 0 0 0 0 0 0 0 0 0 0 0 0 0 0 0 0 0 0 0 0 0
-10 -14 -10 -9 -9 -10 -13 -14 -13 -13 -14 nan nan nan nan nan nan nan nan nan nan nan nan nan nan nan nan nan nan nan nan nan nan nan nan nan nan nan nan nan nan nan nan nan nan nan nan nan nan nan nan nan nan nan 0 0 0 0 0 0 0 0 0 0 0 0 0 0 0 0 0 0 0 0 0 0 0 0 0 0 0 0 0 0 0 0
-12 -11 -8 -6 -6 -9 -12 -14 -13 -13 nan nan nan nan nan nan nan nan nan nan nan nan nan nan nan nan nan nan nan nan nan nan nan nan nan nan nan nan nan nan nan nan nan nan nan nan nan nan nan nan nan nan 0 0 0 0 0 0 0 0 0 0 0 0 0 0 0 0 0 0 0 0 0 0 0 0 0 0 0 0 0 0 0 0 0 0
-10 -7 -4 -4 -4 -8 -10 nan nan nan nan nan nan nan nan nan nan nan nan nan nan nan nan nan nan nan nan nan nan nan nan nan nan nan nan nan nan nan nan nan nan nan nan nan nan nan nan nan nan nan nan -0 0 0 0 0 0 0 0 0 0 0 0 0 0 0 0 0 0 0 0 0 0 0 0 0 0 0 0 0 0 0 0 0 0 0
-6 -4 -4 -8 -8 -10 -10 -13 nan nan nan nan nan nan nan nan nan nan nan nan nan nan nan nan nan nan nan nan nan nan nan nan nan nan nan nan nan nan nan nan nan nan nan nan nan nan nan nan nan nan nan 0 0 0 0 0 0 0 0 0 0 0 0 0 0 0 0 0 0 0 0 0 0 0 0 0 0 0 0 0 0 0 0 0 0 0
-4 -7 -10 -10 -10 nan -10 nan -7 -7 -7 nan nan nan nan nan nan nan nan nan nan nan nan nan nan nan nan -11 nan nan nan nan nan nan nan nan nan nan nan nan nan nan nan nan nan nan nan nan nan nan 0 0 0 0 0 0 0 0 0 0 0 0 0 0 0 0 0 0 0 0 0 0 0 0 0 0 0 0 0 0 0 0 0 0 0 0
-7 -10 -11 nan nan -9 nan -7 -6 -6 -10 nan nan nan nan nan nan nan nan nan nan nan nan nan nan nan nan nan nan nan nan nan nan nan nan nan nan nan nan nan nan nan nan nan nan nan nan nan nan nan 0 0 0 0 0 0 0 0 0 0 0 0 0 0 0 0 0 0 0 0 0 0 0 0 0 0 0 0 0 0 0 0 0 0 0 0
-11 -12 nan nan nan -12 -8 -11 nan nan -21 nan nan nan nan nan nan nan nan nan nan nan nan nan nan nan nan nan nan nan nan nan nan nan nan nan nan nan nan nan nan nan nan nan nan nan nan nan nan nan nan 0 0 0 0 0 0 0 0 0 0 0 0 0 0 0 0 0 0 0 0 0 0 0 0 0 0 0 0 0 0 0 0 0 0 0
-15 -11 nan -23 -23 -15 -2 -17 -26 -26 -27 nan nan nan nan nan nan nan nan nan nan nan nan nan nan nan nan nan nan nan nan nan nan nan nan nan nan nan nan nan nan nan nan nan nan nan nan nan nan nan -10 0 0 0 0 0 0 0 0 0 0 0 0 0 0 0 0 0 0 0 0 0 0 0 0 0 0 0 0 0 0 0 0 0 0 0
nan -14 -16 -24 -24 -20 -16 nan nan nan nan nan nan nan nan nan nan nan nan nan nan nan nan nan nan nan nan nan nan nan nan nan nan nan nan nan nan nan nan nan nan nan nan nan nan nan nan nan nan nan -2 0 0 0 0 0 0 0 0 0 0 0 0 0 0 0 0 0 0 0 0 0 0 0 0 0 0 0 0 0 0 0 0 0 0 0
-21 -25 -25 nan nan -47 nan nan nan nan nan nan nan nan nan nan nan nan nan nan nan nan nan nan nan nan nan nan nan nan nan nan nan nan nan nan nan nan nan nan nan nan nan nan nan nan nan nan nan nan nan 0 0 0 0 0 0 0 0 0 0 0 0 0 0 0 0 0 0 0 0 0 0 0 0 0 0 0 0 0 0 0 0 0 0 0
-25 -34 nan -40 -40 -38 -32 -27 -12 -12 -14 -17 -19 -19 nan nan -8 -8 nan nan nan nan -12 -10 -10 -9 nan 0 nan nan nan nan nan nan nan nan nan nan nan nan nan nan nan nan nan nan nan nan nan nan nan -5 0 0 0 0 0 0 0 0 0 0 0 0 0 0 0 0 0 0 0 0 0 0 0 0 0 0 0 0 0 0 0 0 0 0
-6 -9 -10 -4 -4 0 0 0 0 0 0 -6 nan nan nan nan nan nan nan nan nan -11 -8 -7 -7 -6 -8 nan nan nan nan nan nan nan nan nan nan nan nan nan nan nan nan nan nan nan nan nan nan nan nan nan 0 0 0 0 0 0 0 0 0 0 0 0 0 0 0 0 0 0 0 0 0 0 0 0 0 0 0 0 0 0 0 0 0 0
0 0 0 0 0 0 0 0 0 0 0 0 0 0 -8 -15 -13 -13 -7 -8 -8 -8 -7 -6 -6 -5 -6 nan nan nan nan nan nan nan nan nan nan nan nan nan nan nan nan nan nan nan nan nan nan nan nan nan nan nan 0 0 0 0 0 0 0 0 0 0 0 0 0 0 0 0 0 0 0 0 0 0 0 0 0 0 0 0 0 0 0 0
0 0 0 0 0 0 0 0 0 0 0 0 0 0 0 -8 -5 -5 -5 -8 -8 -8 -6 -5 -5 nan nan nan nan nan nan nan nan nan nan nan nan nan nan nan nan nan nan nan nan nan 0 -1 -1 nan nan nan nan nan -4 0 0 0 0 0 0 0 0 0 0 0 0 0 0 0 0 0 0 0 0 0 0 0 0 0 0 0 0 0 0 -15
0 0 0 0 0 0 0 0 0 0 0 0 0 0 0 -9 -4 -4 -9 -13 -13 -8 -4 -3 -3 -4 nan nan nan nan nan nan nan nan nan nan nan nan nan nan nan nan nan nan nan nan nan nan nan nan nan nan nan nan nan 0 0 0 0 0 0 0 0 0 0 0 0 0 0 0 0 0 0 0 0 0 0 0 0 0 0 0 0 -1 -1 -17
0 0 0 0 0 0 0 nan 0 0 0 0 0 0 0 -9 -9 -9 -10 -12 -12 -8 -3 -2 -2 -3 -6 nan nan nan nan nan nan nan nan nan nan nan nan nan nan nan nan nan nan nan nan nan nan nan nan nan nan nan nan nan nan nan -3 0 0 0 0 0 0 0 0 0 0 0 0 0 0 0 0 0 0 0 0 0 0 0 -4 -19 -19 -25
nan nan nan nan nan nan nan nan nan nan 0 0 0 0 0 -14 nan nan nan nan nan -9 -6 -3 -3 -5 -5 nan nan nan nan nan nan nan nan nan nan nan nan nan nan nan nan nan nan nan nan nan nan nan nan nan nan nan nan nan nan nan nan nan nan nan 0 0 0 0 0 0 0 0 0 0 0 0 0 0 0 0 0 0 0 0 -13 -23 -23 -25
nan nan nan nan nan nan nan nan nan nan nan -19 -18 -18 -2 -1 -6 -6 -16 -19 -19 -14 -9 -6 -6 -5 -5 nan nan nan nan nan nan nan nan nan nan nan nan nan nan nan nan nan nan nan nan nan nan nan nan nan nan nan nan nan nan nan nan nan nan nan nan 0 0 0 0 0 0 0 0 0 0 0 0 0 0 0 0 0 0 0 -9 -20 -20 -16
nan nan nan nan nan nan nan nan nan nan -16 nan -16 -16 nan -14 0 0 -7 -16 -16 -13 -10 nan nan -4 -5 -6 nan nan nan nan 0 0 0 nan nan nan nan nan nan nan nan nan nan nan nan nan nan nan nan nan nan nan nan nan nan nan nan nan nan nan nan nan nan nan nan -2 -0 -0 0 0 0 0 0 0 0 0 0 0 0 0 0 -16 -16 -13
nan nan nan nan nan nan nan nan nan nan nan -20 -10 -10 -11 -17 -13 -13 -7 -12 -12 -13 nan nan nan nan nan nan nan nan nan nan 0 0 0 nan nan nan nan nan nan nan nan nan nan nan nan nan nan nan nan nan nan nan nan nan nan nan nan nan nan nan nan nan nan nan nan nan nan nan nan nan 0 0 0 0 0 0 0 0 0 0 0 0 0 -8
nan nan nan nan nan nan nan nan nan nan nan nan -21 -21 -17 -18 nan nan -17 -13 -13 -13 nan nan nan nan nan nan nan nan nan nan 0 0 0 nan nan nan nan nan nan nan nan nan nan nan nan nan nan -3 nan nan nan nan nan nan nan nan nan nan nan nan nan nan nan nan nan nan nan nan nan nan nan nan nan 0 0 0 0 0 0 0 0 0 0 0
nan nan nan nan nan nan nan nan nan nan nan nan nan nan nan nan nan nan nan nan nan -10 -5 -11 -11 nan nan nan nan nan nan nan nan nan 0 nan nan nan nan nan nan nan nan nan nan nan nan nan nan nan -1 nan nan nan nan nan nan nan nan nan nan nan nan nan nan nan nan nan nan nan nan nan nan nan nan 0 0 0 0 0 0 0 0 0 0 0
nan -9 nan nan nan nan nan nan nan nan nan nan nan nan nan nan nan nan nan nan nan nan nan -4 -4 -7 -2 nan nan nan nan nan nan nan nan nan nan nan nan nan nan nan nan nan nan nan nan nan nan nan nan nan nan nan nan nan nan nan nan nan nan nan nan nan nan nan nan nan nan nan nan nan nan nan nan 0 0 0 0 0 0 0 0 0 0 0
-8 -8 -9 nan nan nan nan nan nan nan nan nan nan nan nan nan nan nan nan nan nan nan nan nan nan nan nan -1 nan nan nan nan nan nan nan nan nan nan nan nan nan nan nan nan nan nan nan nan nan nan nan nan -2 -2 nan nan nan nan nan nan nan nan nan nan nan nan nan nan nan nan nan nan nan nan nan nan nan nan nan nan nan -1 0 0 0 0
-11 -12 -11 -7 -7 -11 nan nan nan nan nan nan nan nan nan nan nan nan nan nan nan nan nan nan nan nan nan nan nan nan nan nan nan nan nan nan nan nan nan nan nan nan nan nan nan nan nan nan nan nan nan nan nan nan nan nan nan nan nan nan nan nan nan nan nan nan nan nan nan nan nan nan nan nan nan nan nan nan nan nan nan nan nan nan nan -2
-7 -9 -9 -2 -2 -10 -15 nan nan nan nan -15 -11 -11 -13 -16 nan nan nan nan nan nan nan nan nan nan nan nan nan nan nan nan nan nan nan nan nan nan nan nan nan nan nan nan nan nan nan nan nan nan nan nan nan nan nan nan nan nan -3 nan nan nan nan nan nan nan nan nan nan nan nan nan nan nan nan nan nan nan nan nan nan nan nan nan nan nan
-4 -8 -8 -7 -7 -8 -7 -11 -19 -19 -19 -18 nan nan nan nan nan nan nan nan nan nan nan nan nan nan nan nan nan nan nan nan nan nan nan nan nan nan nan nan nan nan nan nan nan nan nan nan nan nan nan nan nan nan nan nan nan -3 0 -4 -4 nan nan nan nan nan nan nan nan nan nan nan nan nan nan nan nan nan nan nan nan nan nan nan nan nan
0 -2 -7 nan nan nan nan -18 -13 -13 -13 nan nan nan nan nan nan nan nan nan nan nan nan nan nan nan nan nan nan nan nan nan nan nan nan nan nan nan nan nan nan nan nan nan nan nan nan nan nan nan nan nan nan nan nan nan nan -5 -1 nan nan nan -6 nan nan nan nan nan nan nan -10 -13 nan nan nan nan nan nan nan nan nan nan nan nan nan nan
-2 nan nan nan nan nan -14 -10 -8 -8 -10 nan nan nan nan nan nan nan nan nan nan nan nan nan nan nan nan nan nan nan nan nan nan nan nan nan nan nan nan nan nan nan nan nan nan nan nan nan nan nan nan nan nan nan nan nan nan nan nan nan nan nan nan nan nan nan nan nan nan nan nan nan nan nan nan nan nan nan nan nan nan -3 -2 nan nan nan
nan nan nan nan nan nan -11 nan nan nan nan nan nan nan nan nan nan nan nan nan nan nan nan nan nan nan nan nan nan nan nan nan nan nan nan nan nan nan nan nan nan nan nan nan nan nan nan nan nan nan nan nan nan nan nan nan nan nan nan nan nan nan nan nan nan nan nan nan nan nan nan nan nan nan nan nan nan nan nan nan nan nan nan nan nan nan
nan nan nan nan nan -9 nan nan nan nan nan nan nan nan nan nan nan nan nan nan nan nan nan nan nan nan nan nan nan nan nan nan nan nan nan nan nan nan nan nan nan nan nan nan nan nan nan nan nan nan nan nan nan nan nan nan nan nan nan -6 -6 nan nan nan nan nan nan nan nan nan nan nan nan nan nan nan nan nan nan nan nan nan nan nan nan nan
nan nan nan nan nan nan nan nan nan nan nan nan nan nan nan nan nan nan nan nan nan nan nan nan nan nan nan nan nan nan nan nan nan nan nan nan nan nan nan nan nan nan nan nan nan nan nan nan nan nan nan nan nan nan nan nan nan nan nan nan nan nan nan nan nan nan nan nan nan nan nan nan nan nan nan nan nan nan nan nan nan nan nan nan nan nan
nan nan nan nan nan nan nan nan nan nan nan nan nan nan nan nan nan nan nan nan nan nan nan nan nan nan nan nan nan nan nan nan nan nan nan nan nan nan nan nan nan nan nan nan nan nan nan nan nan nan nan nan nan nan nan nan nan nan nan nan nan nan nan nan nan nan nan nan nan nan nan nan nan nan nan nan nan nan nan nan nan nan nan nan nan nan
nan nan nan nan nan nan nan nan nan nan nan nan nan nan nan nan nan nan nan nan nan nan nan nan nan nan nan nan nan nan nan nan nan nan nan nan nan nan nan nan nan nan nan nan nan nan nan nan nan nan nan nan nan nan nan nan nan nan nan nan nan nan nan nan nan nan nan nan nan nan nan nan nan nan nan nan nan nan nan nan nan nan nan nan nan nan
nan nan nan nan nan nan nan nan nan nan nan nan nan nan nan nan 0 0 nan nan nan nan nan nan nan nan nan nan nan nan nan nan nan nan nan nan nan nan nan nan nan nan nan nan nan nan nan nan nan nan nan nan nan nan nan nan nan nan nan nan nan nan nan nan nan nan nan nan nan nan nan nan nan nan nan nan nan nan nan nan nan nan nan nan nan nan
nan nan nan nan nan nan nan nan nan nan nan nan nan nan nan nan nan nan nan nan nan nan nan nan nan nan nan nan nan nan nan nan nan nan nan nan nan nan nan nan nan nan nan nan nan nan nan nan nan nan nan nan nan nan nan nan nan nan nan nan nan nan nan nan nan nan nan nan nan nan nan nan nan nan nan nan nan nan nan nan nan nan nan nan nan nan
nan nan nan nan nan nan nan nan nan nan nan nan nan nan nan nan nan nan nan nan nan nan nan nan nan nan nan nan nan nan nan nan nan nan nan nan nan nan nan nan nan nan nan nan nan nan nan nan nan nan nan -6 -21 -21 nan nan nan nan nan nan nan nan nan nan nan nan nan nan nan nan nan nan nan nan nan nan nan nan nan nan nan nan nan nan nan nan
Wind_Speed
3 3 4 4 5 5 5 5 6 6 7 7 7 7 8 9 8 9 10 10 9 8 7 8 8 9 11 15 19 22 23 24 25 25 25 25 25 25 25 26 26 26 27 27 27 27 27 27 27 27 27 27 27 27 26 26 26 27 27 27 27 27 27 26 26 26 26 26 26 26 26 25 25 25 25 25 24 24 24 25 25 25 26 26 27 27
4 4 4 4 5 5 6 6 6 6 7 8 8 8 9 9 8 8 8 8 8 7 7 8 8 9 10 13 17 21 22 24 24 24 24 25 25 25 26 26 27 27 27 28 28 28 27 27 27 27 27 27 27 27 26 26 26 26 26 26 26 26 26 26 26 26 26 26 25 25 25 25 25 24 24 24 24 24 24 24 25 25 25 25 25 25
4 4 4 4 4 5 6 6 6 6 7 8 9 9 10 10 9 7 6 6 6 6 7 8 8 9 10 11 15 19 21 22 23 24 24 25 25 26 26 27 27 27 28 28 27 27 27 27 27 27 27 27 27 26 26 26 26 26 26 26 26 26 26 26 26 26 25 25 25 25 24 24 24 24 24 24 24 24 24 25 25 25 25 25 25 25
4 5 5 4 4 4 5 6 6 6 7 8 9 10 10 8 7 6 6 6 6 6 7 8 8 9 9 9 12 15 19 21 23 24 25 25 26 26 27 27 27 27 27 27 27 27 27 27 27 27 27 27 27 27 26 26 26 26 26 26 26 26 26 26 26 25 25 25 24 24 24 24 24 24 24 24 24 24 24 24 24 25 25 25 25 25
4 5 5 4 4 4 5 5 6 7 8 8 8 8 8 6 6 5 5 6 6 7 7 7 8 8 8 7 9 14 18 21 23 24 25 26 26 27 27 27 27 27 27 27 27 27 27 27 27 27 27 27 27 27 27 26 26 26 26 26 26 26 26 26 25 25 25 25 24 24 24 24 24 24 24 24 24 24 24 24 24 24 24 25 25 25
4 4 4 4 4 4 5 5 6 7 7 7 7 7 6 5 5 5 5 6 6 7 7 6 7 7 7 7 10 14 18 21 23 24 25 25 26 26 26 26 26 26 27 27 27 27 27 27 27 27 27 27 27 27 27 27 27 26 26 26 26 26 26 26 25 25 25 24 24 24 24 24 24 23 23 23 24 24 24 24 24 24 24 25 25 25
4 4 4 4 4 4 5 5 6 6 6 6 6 6 6 5 5 5 6 6 6 6 6 6 6 6 6 7 10 13 16 18 20 22 23 24 24 25 25 25 26 26 26 26 26 27 27 27 27 27 27 27 27 27 27 27 27 27 26 26 26 26 26 25 25 25 25 25 24 24 24 24 24 23 23 24 24 24 24 24 24 24 25 25 25 25
6 5 4 4 5 5 5 5 6 6 6 5 6 6 6 5 5 6 6 6 5 5 5 5 5 5 5 6 8 10 11 13 14 15 17 19 20 21 23 24 24 25 25 26 26 27 27 27 27 27 27 27 27 27 27 27 27 26 26 26 26 26 26 25 25 25 25 25 25 24 24 24 24 24 24 24 24 24 24 24 24 25 25 25 25 25
6 6 5 5 6 6 6 5 5 5 5 5 5 6 6 6 6 6 5 5 5 4 4 5 5 6 6 6 7 8 9 10 11 11 13 13 14 16 19 20 22 23 24 25 26 26 27 27 27 27 27 27 27 27 26 26 26 26 26 26 26 26 25 25 25 25 25 25 25 25 25 25 25 25 25 25 25 25 25 25 25 25 25 25 26 26
6 7 7 6 5 5 6 6 6 5 4 4 4 5 5 7 7 7 6 6 5 4 4 5 6 7 7 6 6 7 9 11 13 15 16 16 16 18 18 18 19 20 23 24 25 26 27 27 27 27 26 26 26 26 26 26 26 26 25 25 25 25 25 25 25 25 26 26 26 26 26 26 26 25 25 25 25 25 25 25 25 25 25 25 26 26
6 6 6 5 4 4 4 5 5 4 4 4 4 4 4 5 6 7 8 8 7 6 5 5 6 7 7 7 7 7 9 9 10 12 15 16 17 19 18 18 18 19 22 23 24 25 25 26 26 26 26 26 26 25 25 25 25 25 25 25 25 25 26 26 26 26 26 26 26 26 26 26 26 26 26 26 26 25 25 25 25 25 25 25 26 26
5 5 4 4 4 4 4 4 4 4 4 5 5 5 5 5 5 6 8 9 9 8 7 7 6 6 7 7 7 7 8 8 8 8 8 9 10 11 12 13 14 16 17 19 20 21 23 24 25 25 24 24 24 24 24 24 24 25 25 25 25 26 26 26 26 26 27 27 27 27 27 27 26 26 26 26 26 26 25 25 25 25 25 25 26 26
4 4 4 4 5 5 5 6 5 5 5 5 6 7 6 6 5 5 7 8 9 9 9 8 7 7 6 6 6 6 8 8 7 7 6 5 6 6 7 7 8 9 10 11 12 14 18 20 21 22 22 22 23 23 24 24 24 25 25 26 26 26 26 27 27 27 27 27 27 27 27 27 26 26 26 26 26 26 26 26 26 26 26 26 26 26
5 5 6 6 6 6 6 6 6 6 5 5 6 7 7 6 6 7 7 8 8 8 9 9 9 8 6 6 6 6 6 6 6 6 5 5 5 5 6 7 8 8 8 9 9 10 13 15 15 16 19 20 21 22 22 23 24 25 26 26 26 27 27 27 27 27 27 27 27 27 27 27 27 26 26 26 26 26 26 26 26 26 26 26 26 26
6 7 7 7 7 6 6 6 6 6 6 6 6 7 7 7 7 8 8 9 9 8 8 9 9 8 6 6 5 5 5 5 5 5 6 6 6 6 6 7 8 8 8 8 9 10 12 11 11 11 13 15 17 18 21 22 24 25 26 27 27 27 27 28 28 28 28 28 27 27 27 27 27 27 26 26 26 26 26 26 26 26 26 26 26 26
6 6 7 7 7 6 5 6 6 7 7 7 7 7 8 8 7 7 7 8 8 8 8 9 9 8 6 5 4 4 4 4 5 6 8 8 7 6 6 7 8 9 8 8 8 9 9 9 9 10 11 14 18 22 24 24 25 26 27 27 28 28 28 28 28 28 28 28 28 28 27 27 27 27 27 26 26 26 26 26 26 26 25 25 26 26
6 5 6 6 6 6 6 6 7 7 7 7 7 7 7 7 7 7 7 8 8 7 7 7 8 7 6 4 3 2 3 4 6 7 9 9 8 7 7 7 9 9 9 8 8 8 8 8 8 9 10 15 20 23 25 26 26 27 28 28 28 28 28 28 28 28 28 28 28 28 28 27 27 27 27 26 26 26 26 26 25 25 25 25 25 25
5 5 5 6 7 7 7 7 7 6 6 7 7 7 7 7 7 7 7 8 8 7 7 6 6 6 6 5 4 3 4 5 7 8 10 10 9 7 6 7 8 9 9 9 8 8 8 8 8 9 12 18 22 25 26 27 27 27 28 28 28 28 28 28 28 29 29 29 28 28 28 27 27 27 27 26 26 26 26 25 25 25 25 25 25 25
5 5 6 7 7 7 7 7 7 7 7 7 7 7 7 7 7 8 8 8 7 7 7 7 6 5 5 6 6 6 5 6 8 9 10 10 9 7 6 7 8 9 9 9 8 8 8 8 10 13 18 22 24 26 26 27 27 27 28 28 28 28 28 29 29 29 29 29 28 28 28 27 27 27 26 26 26 26 25 25 25 25 25 25 25 25
7 7 7 7 8 8 7 7 7 7 7 7 7 8 9 9 9 9 8 7 6 6 6 6 6 6 6 8 8 8 7 8 8 9 10 10 9 8 7 7 8 9 9 8 7 7 8 8 10 13 18 21 23 25 26 27 27 27 28 28 28 29 29 29 29 29 29 28 28 28 28 27 27 27 26 26 26 26 25 25 25 25 25 25 25 25
8 8 8 7 7 7 7 7 6 7 8 8 8 9 10 9 9 8 7 6 5 5 4 5 6 7 7 9 9 9 8 8 8 8 8 8 8 7 6 7 8 9 9 8 8 8 8 8 9 10 13 19 22 24 26 27 27 28 28 29 29 29 29 29 29 28 28 28 28 28 28 27 27 27 27 26 26 26 25 25 25 25 25 25 25 25
8 9 8 8 7 7 8 8 8 9 10 9 9 9 8 7 7 7 6 5 5 6 7 7 8 9 9 10 10 9 8 7 7 7 6 8 8 7 5 5 7 8 10 8 8 8 8 8 8 10 13 19 23 25 26 27 28 28 28 29 29 29 29 29 28 28 28 28 28 28 28 27 27 27 27 26 26 26 25 25 25 25 25 25 25 25
8 8 9 8 8 8 8 8 8 9 10 9 9 8 6 5 5 6 6 6 7 7 8 9 9 9 9 9 9 8 7 6 6 6 6 8 9 8 5 6 7 8 9 8 8 8 9 8 9 10 13 19 23 25 26 27 28 28 28 29 29 29 28 28 28 28 28 28 28 28 28 27 27 27 27 26 26 26 25 25 25 25 25 25 25 25
8 8 8 7 7 7 7 7 8 8 7 7 6 5 4 5 6 7 6 6 7 7 7 8 9 9 9 9 8 7 6 5 4 4 5 7 8 8 6 6 7 9 10 9 8 9 9 9 9 9 11 17 21 24 26 27 27 28 28 28 28 28 28 28 28 28 28 28 28 28 28 27 27 27 27 26 26 26 26 25 25 25 25 25 25 25
8 8 8 8 9 9 10 10 10 9 8 7 6 6 7 8 8 8 7 6 6 7 7 8 8 9 8 8 8 6 5 5 4 4 5 6 7 8 6 6 8 10 10 9 9 9 10 10 9 9 9 13 18 22 24 26 27 27 27 28 28 28 28 28 28 28 28 28 28 28 28 27 27 27 26 26 26 26 25 25 25 25 25 25 25 25
13 13 13 15 17 19 20 20 19 18 18 14 11 10 9 9 8 8 7 6 7 7 7 8 8 8 7 7 6 6 5 4 4 4 5 5 7 8 6 6 7 9 10 9 9 9 10 10 10 10 9 11 14 19 22 24 25 26 27 27 28 28 28 28 28 28 28 28 28 28 27 27 27 26 26 26 26 26 25 25 25 25 25 25 25 24
20 21 22 23 23 22 22 21 22 23 23 21 18 15 11 9 8 7 7 6 6 6 7 8 8 8 8 7 7 6 6 5 4 4 4 5 7 7 7 6 7 8 10 9 9 9 11 11 11 10 9 9 10 13 19 21 23 25 26 27 27 28 28 28 28 28 28 28 27 27 27 27 26 26 26 26 26 25 25 25 25 25 25 24 21 19
21 21 21 20 19 19 19 20 20 21 22 22 21 19 14 9 7 7 7 6 6 6 7 8 8 8 7 7 7 7 6 5 5 4 4 5 5 6 6 6 7 8 9 9 9 10 11 11 10 9 8 8 8 10 14 18 21 23 24 26 27 28 28 28 28 28 27 27 27 27 27 26 26 26 26 26 25 25 25 25 25 25 23 19 15 11
17 16 15 15 16 17 17 17 18 18 19 19 19 17 12 8 6 6 7 6 6 7 8 8 8 8 8 8 8 7 7 6 5 4 3 4 5 6 6 7 7 7 8 8 8 8 8 8 8 7 7 8 8 8 10 14 16 18 20 23 25 26 26 26 27 27 27 27 27 27 26 26 26 26 26 25 25 25 25 26 25 22 17 14 11 9
9 9 9 10 12 12 13 12 12 14 16 17 17 15 11 7 6 6 7 6 6 7 8 8 8 8 8 8 8 8 6 5 4 3 3 4 5 6 6 7 7 7 6 7 7 7 6 6 5 6 6 8 9 8 8 10 11 12 14 17 19 21 23 24 25 26 26 26 26 26 26 26 26 25 25 25 25 25 25 26 23 19 12 10 9 8
5 6 6 6 7 7 7 7 8 10 12 13 13 12 9 7 6 6 6 6 6 6 7 8 8 8 8 7 7 6 6 5 4 4 4 4 5 6 6 7 7 7 6 5 6 7 7 6 5 5 7 8 9 9 9 10 10 10 10 11 12 15 19 21 23 23 24 24 25 25 25 25 25 25 25 25 25 25 25 25 23 18 11 9 8 8
5 6 6 6 6 6 6 7 7 7 8 8 8 8 8 7 7 6 6 6 5 6 7 8 8 8 8 7 7 7 6 6 6 6 6 5 5 6 6 7 7 7 6 6 6 7 7 7 6 6 6 8 8 8 9 10 10 10 10 10 10 12 16 18 19 20 20 21 22 23 24 24 24 25 25 25 25 25 25 25 22 18 11 9 9 9
7 6 6 6 6 6 6 6 6 6 6 6 6 6 6 7 7 7 6 6 5 6 6 7 8 8 8 8 8 8 8 8 8 9 9 6 5 5 6 7 8 8 8 7 7 7 7 7 7 7 7 7 7 7 8 9 10 10 10 10 10 11 14 14 15 15 15 16 17 19 20 22 23 23 24 24 24 24 24 24 23 19 15 11 9 9
7 7 7 7 6 6 7 7 6 6 6 6 6 6 6 6 6 7 7 6 6 6 6 7 8 8 9 9 9 9 9 9 10 10 10 7 6 6 7 8 8 9 8 8 8 8 7 9 9 8 8 7 7 7 8 8 9 10 9 9 9 10 11 11 11 11 12 12 12 13 14 15 17 19 20 21 21 22 22 23 23 22 20 15 12 10
7 7 7 7 7 7 7 6 6 6 6 6 6 6 6 6 6 6 6 6 6 6 7 7 8 8 9 9 9 10 10 9 10 11 11 8 7 6 7 8 8 8 8 8 8 7 7 9 10 10 9 9 8 7 6 7 8 9 8 9 9 9 10 10 10 10 11 11 10 10 10 10 11 12 14 16 18 20 21 23 23 24 24 21 18 14
7 7 7 7 7 7 7 7 7 7 7 6 6 6 6 6 6 6 7 7 7 8 8 8 8 8 9 9 10 11 11 11 11 11 11 9 8 7 7 7 8 9 9 9 9 8 8 10 11 11 11 10 9 8 7 7 7 8 9 9 10 10 10 10 10 9 9 10 10 10 9 9 9 9 10 15 18 20 22 23 24 24 24 24 23 20
7 7 7 6 6 7 7 7 6 7 7 7 6 6 7 7 7 7 7 7 8 8 9 10 10 10 11 10 11 11 12 11 11 12 12 11 9 8 8 8 9 9 9 9 9 9 10 10 11 11 11 10 9 8 8 8 8 8 9 10 10 10 10 10 10 9 9 10 10 10 10 9 9 9 10 14 17 19 20 22 22 22 23 24 23 23
7 7 7 6 6 6 6 6 6 7 7 7 7 8 8 8 8 8 8 8 8 9 9 9 9 11 13 14 14 14 13 14 14 15 14 12 10 9 9 9 10 10 9 9 9 10 10 10 11 11 10 9 9 10 10 10 10 10 10 10 10 10 10 10 10 9 9 10 11 11 11 10 10 9 9 11 11 11 12 13 15 17 19 19 21 22
7 7 7 7 7 6 6 6 7 7 7 8 8 8 9 9 9 8 8 8 8 9 9 9 9 10 12 13 15 15 16 15 15 15 14 12 10 10 10 10 10 10 10 10 9 9 10 10 10 10 10 10 10 10 10 10 11 11 11 11 10 10 10 9 9 9 9 10 11 11 11 10 9 8 8 8 8 8 9 9 10 12 13 12 13 16
7 7 7 7 7 7 7 7 7 7 8 8 9 9 9 9 8 8 7 8 8 8 9 9 9 9 10 11 12 13 13 12 12 12 11 9 9 9 10 10 10 10 10 10 10 10 10 10 11 11 11 11 10 11 10 10 11 12 13 11 9 8 9 9 10 10 9 9 10 10 9 9 8 9 9 9 9 9 9 8 9 10 10 8 8 9
7 7 7 7 7 7 8 8 8 8 8 8 8 8 7 7 7 7 7 7 7 8 8 8 8 8 9 9 10 11 11 11 11 11 9 10 10 10 10 10 10 10 10 10 10 10 10 11 12 12 12 11 12 12 12 12 13 15 15 13 11 11 11 12 11 10 9 9 9 9 10 10 10 10 10 10 10 9 9 9 9 10 10 8 7 8
8 8 7 7 7 7 7 8 8 8 8 8 7 7 7 7 7 7 7 7 7 7 7 7 7 8 9 9 9 9 9 10 10 11 11 11 11 11 10 10 10 10 10 10 10 11 11 11 12 12 12 12 11 12 11 12 13 14 14 13 13 13 13 12 10 8 9 9 9 9 10 10 10 10 10 10 10 10 9 10 11 12 11 9 8 8
7 7 7 7 7 7 8 8 8 8 8 7 7 7 7 7 7 7 8 8 8 8 8 8 8 9 10 10 10 9 8 8 9 10 11 10 11 11 10 11 11 10 10 10 10 11 11 11 12 12 12 11 12 12 13 13 13 13 13 13 13 11 9 8 7 7 9 10 10 9 10 10 10 10 10 10 9 9 8 10 12 13 13 10 9 8
7 7 7 7 7 7 7 7 7 7 7 8 8 8 7 7 8 8 8 8 9 9 9 8 8 9 10 10 10 10 9 8 8 9 9 10 11 10 11 11 11 11 10 10 10 10 11 11 11 11 11 11 11 12 13 13 13 13 13 13 13 12 10 10 10 10 10 10 9 9 10 10 10 10 10 10 9 9 8 9 9 9 10 9 9 9
6 6 7 7 7 7 7 7 7 7 7 8 8 8 8 8 8 8 8 8 9 9 9 8 8 8 9 10 10 9 9 8 8 8 8 10 12 13 12 11 11 11 11 10 10 10 10 11 11 11 10 10 11 12 13 13 14 14 14 14 13 13 13 12 12 11 11 11 10 10 10 9 9 10 10 10 10 9 9 9 9 9 8 8 8 9
6 7 7 7 7 7 8 8 8 8 8 8 8 8 8 8 8 8 8 9 9 9 9 8 8 8 9 10 10 10 9 9 9 8 7 8 8 9 9 10 10 10 10 10 10 11 11 11 11 11 11 11 11 12 13 14 13 13 13 13 13 12 12 12 11 11 11 11 11 10 9 8 8 9 9 10 10 10 10 10 10 10 9 8 8 9
7 7 7 7 7 7 8 8 8 8 8 8 8 8 8 8 8 8 8 9 9 9 9 8 8 9 10 10 10 10 10 11 11 10 9 8 8 8 8 8 9 10 10 10 11 11 12 12 12 12 11 11 12 13 13 13 13 13 13 13 12 12 12 11 11 11 11 11 10 9 8 8 8 9 10 11 11 11 10 10 10 10 9 9 9 9
7 7 7 7 7 8 8 8 8 8 8 9 9 8 8 8 9 9 9 9 8 8 9 9 9 9 10 10 10 10 11 11 11 11 10 9 9 9 9 8 8 9 10 11 11 12 12 13 13 13 12 12 12 13 14 13 13 13 12 12 12 12 12 11 11 10 10 10 11 10 8 8 8 10 11 11 11 11 11 11 10 9 9 8 9 9
7 7 8 8 8 8 8 8 8 8 9 9 9 9 9 9 10 11 9 9 8 8 8 9 9 10 10 10 10 11 12 12 11 11 10 10 10 9 9 9 9 9 9 10 9 9 10 11 12 13 12 12 12 13 14 13 13 12 12 11 11 11 11 11 11 10 10 10 10 10 8 8 8 9 10 11 12 13 13 12 11 10 9 8 8 9
7 7 7 7 8 8 8 8 8 9 9 9 10 9 9 9 9 8 8 8 8 8 8 9 9 10 10 11 11 11 11 11 11 10 10 10 9 9 9 9 10 10 10 9 8 8 8 8 9 10 12 13 13 13 12 12 12 11 11 10 10 10 10 10 10 10 10 10 10 10 9 8 8 9 9 11 13 14 14 13 11 10 8 8 8 9
8 7 7 7 7 8 8 8 8 9 9 10 10 10 9 9 9 8 8 8 8 8 8 9 9 10 11 11 11 11 11 11 11 11 11 10 10 10 10 10 10 10 10 9 9 8 7 7 7 8 9 12 13 13 10 10 10 10 10 9 9 8 9 10 10 10 11 11 10 10 9 9 9 9 9 10 11 13 13 13 12 11 9 8 8 9
Wind_Direction
305 310 315 323 320 314 309 311 311 309 306 305 304 302 299 297 294 291 289 290 289 288 289 291 293 295 296 298 300 301 301 302 302 302 302 303 303 304 305 305 306 307 307 307 306 306 305 304 303 302 301 301 300 300 300 299 299 298 298 298 297 297 297 297 296 296 296 296 296 295 295 295 294 294 293 293 292 291 290 289 288 287 286 285 285 285
306 308 310 316 315 310 304 306 305 303 302 301 300 298 296 294 292 291 289 288 287 289 294 296 297 296 295 296 298 299 300 301 302 303 303 304 305 306 306 307 307 307 306 306 305 304 303 302 302 301 301 300 300 300 299 299 299 298 298 298 298 298 298 298 298 298 298 297 297 297 296 296 295 294 293 292 291 289 288 286 285 284 282 282 282 281
311 309 308 311 309 306 302 304 301 296 294 294 293 292 291 291 290 290 292 293 293 294 296 297 297 297 295 294 296 298 300 301 303 304 305 305 306 306 306 306 306 305 305 304 303 303 302 301 301 301 301 301 300 300 300 299 299 299 299 299 299 299 300 299 299 299 299 299 298 298 297 297 296 294 293 291 290 288 286 285 284 283 282 282 281 281
310 308 308 308 303 298 296 299 298 295 290 289 288 287 286 287 288 290 294 296 298 297 296 295 295 295 294 292 295 298 301 302 304 305 306 306 306 306 305 305 305 304 303 303 302 302 301 301 301 301 301 301 301 301 300 300 300 300 301 301 301 301 301 301 301 301 301 300 300 299 298 297 296 294 293 291 289 288 287 286 285 284 283 283 282 282
308 305 306 306 302 297 293 294 293 292 289 287 286 286 285 286 289 293 296 297 297 297 297 296 294 293 292 293 296 300 302 304 305 306 306 305 304 304 304 303 303 303 302 302 302 302 301 301 301 301 302 301 302 302 301 302 302 302 302 302 302 302 302 302 302 302 302 301 300 299 298 297 295 294 293 291 290 289 288 287 286 285 283 283 282 281
302 301 302 301 299 297 297 293 291 290 290 288 287 288 289 291 294 297 298 299 298 298 297 295 293 292 292 294 299 302 304 305 305 304 304 303 302 302 302 302 302 302 302 302 301 301 301 301 302 301 301 302 302 302 302 302 303 303 303 303 303 303 303 303 303 302 301 301 300 298 297 296 295 294 293 291 290 289 287 286 285 284 283 282 280 279
299 297 297 294 291 290 291 289 289 289 291 293 294 295 295 297 298 298 297 297 297 296 295 294 293 292 293 296 299 302 303 303 302 302 301 300 300 300 301 301 301 301 301 301 301 301 301 301 301 301 301 301 301 302 302 303 303 304 304 304 304 303 303 303 302 302 301 300 299 297 296 295 294 292 291 290 288 287 286 285 283 282 281 280 279 278
297 296 294 292 290 288 285 285 287 290 292 296 300 302 301 300 299 297 296 295 293 293 295 296 297 297 297 296 297 298 298 298 298 297 298 298 298 298 299 299 300 301 301 302 302 302 301 301 301 301 301 301 301 302 303 303 303 304 304 303 303 303 303 302 301 301 299 298 297 296 294 293 292 290 289 288 286 285 284 283 282 281 280 279 278 277
294 294 292 288 289 291 292 290 289 291 293 296 300 303 304 303 302 299 298 298 295 296 299 301 301 300 297 295 294 293 292 292 293 294 295 295 296 297 298 299 300 301 302 302 302 301 301 301 301 301 301 301 302 302 302 303 303 303 303 302 302 302 301 300 299 298 297 296 295 293 292 291 290 289 288 287 285 284 283 282 281 280 279 278 278 277
286 287 288 286 286 288 292 293 292 291 288 288 290 293 299 304 305 305 304 302 302 301 302 302 301 299 297 294 292 292 292 292 292 293 293 294 295 296 298 300 302 302 302 302 302 301 301 301 301 301 301 301 301 301 302 302 302 302 301 301 300 300 299 298 296 295 294 293 292 292 291 290 289 288 288 287 286 285 284 283 282 281 280 279 278 278
284 283 285 287 286 282 278 284 288 290 286 286 286 289 294 300 305 307 308 307 306 305 302 298 297 296 297 296 295 294 294 293 291 291 291 293 295 297 299 301 302 302 302 302 301 301 300 300 300 300 300 300 300 301 301 301 301 300 300 299 298 297 296 295 294 293 292 292 292 292 291 291 290 290 289 288 287 286 285 284 283 282 281 280 280 279
287 287 287 288 289 288 282 285 288 293 297 300 302 303 302 302 303 305 306 307 306 305 302 297 294 292 294 296 296 295 293 290 289 289 289 292 295 298 301 302 302 302 301 301 300 299 299 299 299 299 299 299 300 300 300 300 299 299 298 297 296 295 294 293 293 293 293 293 293 293 293 292 292 291 290 289 289 288 287 285 284 283 282 281 280 280
290 294 296 296 296 297 298 299 301 304 307 308 307 307 307 308 308 304 301 301 301 301 300 297 294 291 289 290 291 291 289 287 287 288 291 295 298 301 302 302 301 300 299 298 297 296 297 298 298 298 298 298 298 298 298 298 297 296 296 295 294 294 294 294 294 294 294 294 294 294 294 294 293 292 292 291 289 288 287 286 284 283 282 281 280 279
302 303 301 299 298 298 299 302 303 305 307 307 306 306 307 309 307 303 298 295 295 295 296 295 294 293 291 288 285 283 284 286 289 293 296 298 301 303 303 300 299 297 296 294 292 292 294 295 296 296 296 296 297 296 296 295 295 294 294 294 294 294 295 295 295 295 296 296 296 296 295 295 294 293 292 291 290 288 287 285 284 283 281 280 279 278
305 302 298 295 294 296 299 302 303 304 305 307 307 307 307 305 303 299 296 294 294 295 295 293 291 290 288 285 283 281 283 290 297 302 302 300 300 301 302 299 296 294 293 291 290 290 292 292 292 291 292 292 292 292 292 293 294 294 295 295 296 296 296 296 296 296 297 297 297 297 296 295 295 293 292 291 289 288 287 285 284 282 281 280 278 277
297 293 290 291 293 297 303 307 307 307 307 308 308 306 304 301 298 295 293 293 294 295 295 294 293 291 286 281 279 283 294 303 306 305 303 300 300 301 302 298 295 292 290 288 287 288 290 289 287 286 287 289 291 292 293 294 295 296 296 296 296 296 296 296 296 297 297 297 297 297 296 295 294 293 292 291 289 288 287 285 284 282 281 280 278 277
289 288 290 295 300 304 307 307 305 304 306 305 302 299 296 294 292 291 290 290 291 291 290 291 293 295 295 290 287 293 319 317 311 305 302 299 298 299 299 294 291 290 288 286 286 287 288 287 287 286 287 289 292 294 295 296 296 296 296 296 296 296 296 296 297 297 297 297 297 297 296 295 294 293 292 291 289 288 287 286 284 283 282 280 279 278
290 294 299 301 303 304 306 305 303 301 300 298 295 292 288 286 286 287 286 286 286 285 285 285 286 289 295 298 302 316 334 321 311 304 300 296 296 296 295 289 287 286 286 285 285 285 285 286 286 288 289 292 294 295 296 296 296 296 296 296 296 296 296 297 297 297 297 297 296 296 295 294 293 292 292 291 290 289 288 287 286 285 283 282 281 280
301 303 304 302 301 301 301 300 299 297 295 294 292 291 287 284 282 281 280 280 279 280 282 283 283 286 292 296 304 314 327 317 308 302 297 294 294 294 294 289 286 285 285 285 285 286 287 287 287 289 290 293 294 294 295 295 295 295 295 296 296 296 297 297 297 296 296 296 295 295 294 294 293 292 292 292 291 291 290 289 288 287 286 285 284 282
301 300 299 299 298 297 293 290 290 290 290 288 287 286 284 283 281 280 280 279 278 278 280 283 288 293 298 300 304 310 317 312 304 297 293 291 292 293 294 290 288 287 286 286 287 289 289 288 288 289 290 291 292 293 293 294 295 295 296 296 296 297 296 296 296 296 296 295 295 295 294 294 293 293 293 293 293 293 292 291 290 289 288 287 285 284
296 293 292 292 292 291 287 285 284 283 284 284 283 281 280 281 282 283 283 284 284 285 289 292 296 299 304 303 303 306 311 308 301 295 292 290 290 290 292 290 289 289 289 289 289 289 288 286 285 285 287 289 291 292 293 294 295 296 296 296 296 296 296 296 296 295 295 295 295 295 294 294 294 294 294 294 294 294 293 292 291 290 288 287 286 285
289 288 287 285 282 280 281 283 282 280 279 279 278 277 277 280 282 284 287 293 298 300 301 300 300 300 301 298 298 300 304 299 294 292 292 290 289 288 292 293 292 291 290 290 289 288 285 283 282 283 285 289 291 293 294 294 295 295 295 295 295 295 296 295 295 295 295 295 295 295 295 295 296 295 295 295 294 294 293 292 291 290 289 287 286 285
281 282 284 281 277 276 278 280 278 277 275 273 272 272 275 282 291 298 306 308 306 303 301 298 298 297 295 294 294 295 294 289 286 287 288 288 289 292 298 297 293 290 288 290 290 290 287 285 284 285 287 290 291 292 293 293 294 294 294 294 295 295 295 295 295 295 295 295 296 296 296 296 296 296 295 295 294 294 293 292 291 290 289 288 287 286
279 280 281 279 275 272 273 274 274 274 273 271 273 277 288 296 301 303 304 304 302 300 298 298 297 295 293 293 292 291 290 287 285 285 285 285 288 292 298 297 292 289 288 289 291 292 291 289 287 287 287 289 290 291 292 292 292 293 293 293 294 294 294 294 295 295 296 296 296 297 296 296 296 295 295 294 294 293 292 292 291 291 290 289 288 287
281 279 278 278 276 276 277 280 284 289 294 296 299 303 304 304 304 302 300 300 299 299 299 298 297 295 295 296 295 292 289 286 283 282 283 284 286 288 292 294 292 290 289 291 292 293 293 291 289 288 286 287 288 289 290 291 291 291 292 292 293 293 293 294 295 295 296 296 296 296 296 295 295 295 294 294 293 293 292 292 292 291 291 290 289 288
286 285 285 286 287 289 292 297 302 307 312 312 312 312 310 309 307 304 301 300 301 301 300 297 294 293 294 295 293 291 290 286 281 278 280 283 286 288 290 291 290 289 290 292 294 295 293 292 290 289 287 286 287 288 288 289 289 290 290 291 292 293 294 295 295 296 295 295 295 295 294 294 294 294 293 293 293 293 292 292 292 292 292 292 291 289
290 290 290 292 294 298 304 309 312 313 313 312 310 309 307 307 304 300 296 299 302 302 299 295 294 293 294 292 290 289 291 290 285 279 276 281 284 286 289 290 289 290 292 293 294 294 292 291 291 290 288 285 283 284 285 286 288 289 290 291 293 293 294 294 295 295 294 294 293 293 293 293 293 293 293 293 293 293 293 293 293 293 293 292 291 289
290 291 293 296 301 307 312 313 313 312 311 309 307 306 305 304 300 297 295 300 302 299 292 291 291 293 294 292 291 290 290 288 284 279 275 278 279 282 287 292 294 295 295 294 293 291 290 289 288 287 285 282 280 280 283 286 289 290 291 292 292 293 293 293 293 293 293 292 292 292 291 292 292 292 292 293 293 293 293 293 293 293 293 292 290 286
290 293 297 304 309 312 313 312 310 308 307 305 305 305 305 302 297 294 294 297 296 291 286 286 287 289 290 291 291 291 287 283 281 279 281 282 281 283 291 295 297 298 298 296 294 290 285 283 283 284 284 284 283 283 285 288 290 290 291 291 291 291 291 291 291 291 291 291 291 291 291 291 291 292 292 292 292 292 292 293 293 293 292 290 286 282
296 302 307 310 311 310 309 305 303 302 302 303 303 303 303 298 291 288 288 289 287 285 284 285 286 288 290 293 293 291 285 281 281 289 302 293 288 288 295 296 296 297 300 299 298 293 287 282 281 284 287 288 289 289 289 289 289 288 288 289 289 289 289 290 290 290 290 290 290 290 290 290 291 291 291 291 291 291 291 292 292 291 289 286 282 279
312 313 310 307 305 303 299 295 295 296 299 300 301 301 298 292 285 281 281 281 281 281 283 285 286 287 289 292 293 291 287 288 297 310 314 297 290 289 296 295 294 293 296 297 298 298 298 294 290 287 289 290 291 290 288 288 287 287 287 287 287 287 288 289 289 290 290 290 290 290 290 290 290 290 290 290 290 290 290 290 290 290 287 284 280 277
314 311 307 304 301 298 295 294 295 295 296 297 296 294 291 288 285 283 282 281 281 281 283 284 285 285 285 283 283 283 285 290 300 307 307 295 288 287 291 291 291 291 291 288 288 290 296 298 298 296 293 290 289 288 287 287 287 287 287 287 286 287 288 289 290 290 289 289 289 289 289 289 289 289 289 288 288 288 288 288 289 288 286 282 279 276
313 309 306 303 301 298 297 296 296 295 294 294 292 291 290 289 289 289 288 286 284 283 283 285 285 285 283 280 277 277 279 284 293 299 299 294 288 287 290 290 290 291 291 286 282 280 282 288 294 297 294 290 288 288 288 287 287 286 286 286 286 287 288 289 289 288 288 288 288 288 288 288 287 287 287 286 286 286 286 286 286 286 284 281 278 276
309 306 304 302 300 298 296 295 294 293 293 292 293 294 294 293 292 292 291 288 285 282 281 281 282 283 284 282 279 277 277 280 288 294 298 293 288 287 289 289 290 291 292 289 285 282 279 283 288 293 294 292 289 287 288 287 286 285 283 283 284 286 287 288 288 287 286 286 285 285 285 285 284 284 284 284 284 284 284 284 285 284 284 283 281 280
304 303 303 301 299 297 296 295 294 293 293 293 294 295 296 295 294 292 289 287 284 280 276 274 275 276 278 280 280 280 280 283 289 294 295 290 287 286 288 287 288 290 291 289 288 287 285 286 288 292 294 294 292 288 285 284 284 283 282 281 282 283 285 286 286 285 285 284 282 281 280 279 278 278 279 280 280 281 282 284 285 285 286 285 284 283
302 302 301 300 299 298 297 297 297 297 297 296 296 296 296 295 293 291 288 285 282 279 276 273 271 270 270 271 274 277 280 284 288 291 290 286 285 284 284 284 286 288 288 287 287 287 288 289 290 291 292 292 292 291 287 285 284 284 284 283 283 283 283 282 282 282 282 282 280 279 277 276 274 274 274 278 280 281 283 285 286 286 286 285 283 281
301 300 300 299 298 298 298 298 299 300 301 301 300 299 299 296 293 290 287 283 280 278 277 275 273 270 267 267 268 271 276 281 285 286 284 282 280 279 279 281 283 284 283 285 286 288 288 289 290 290 288 287 289 292 294 294 291 288 285 285 284 284 283 281 280 279 279 278 278 277 277 276 276 275 276 279 281 283 285 285 285 284 284 282 281 279
299 299 298 298 297 297 298 299 300 301 302 303 303 302 300 297 293 289 286 282 278 276 275 275 273 272 269 269 269 270 273 276 278 279 278 276 274 273 275 278 280 280 278 279 282 284 285 286 288 290 288 286 285 288 292 295 293 290 286 285 284 283 282 281 279 278 277 277 278 279 279 279 279 279 279 280 281 282 282 280 279 279 279 279 278 277
297 297 298 299 299 300 300 301 301 302 302 301 301 299 298 295 291 287 283 281 278 276 274 274 275 275 273 272 271 272 273 274 275 275 274 272 271 271 273 276 277 277 275 274 275 276 278 280 282 285 287 288 289 289 289 289 289 288 289 288 285 281 278 280 280 280 280 280 281 281 281 279 278 277 277 276 276 275 275 275 275 275 276 276 277 277
298 298 299 300 301 301 300 300 300 300 300 299 298 297 296 295 293 290 286 284 283 281 278 276 275 275 274 274 274 275 275 275 275 274 273 269 267 266 268 271 273 275 275 274 272 271 272 274 276 279 281 284 286 288 289 287 286 287 290 290 288 285 284 284 284 283 281 279 278 278 278 276 274 273 272 272 272 271 272 273 275 276 275 275 277 279
302 302 302 302 302 300 298 298 298 298 297 297 297 297 297 297 298 297 295 293 290 288 286 283 281 279 278 276 276 277 277 276 275 273 271 267 264 263 264 266 268 271 273 273 271 269 269 271 274 276 277 279 281 283 284 284 285 286 288 287 286 286 287 286 284 282 280 277 276 275 276 277 276 275 274 273 271 270 268 270 272 274 274 270 268 270
303 303 302 302 301 301 299 298 298 297 296 297 297 297 298 298 299 299 298 297 296 294 293 292 292 291 289 286 284 281 279 277 275 273 271 267 263 262 261 262 264 267 270 271 271 269 267 268 270 273 275 277 279 281 281 282 283 283 283 283 285 287 287 283 281 279 280 279 278 277 276 277 277 276 275 273 271 269 266 265 266 268 270 267 263 261
302 301 300 299 299 299 299 299 299 300 300 300 298 297 297 297 296 296 295 295 295 296 296 296 295 294 293 292 291 289 284 278 274 272 271 269 265 263 261 261 262 264 266 270 271 271 269 267 268 269 272 275 276 278 280 282 283 282 281 282 285 288 288 285 283 282 280 279 279 278 277 276 275 274 274 272 271 270 268 266 266 265 265 265 263 260
297 297 297 297 298 299 300 301 302 302 302 300 298 297 295 295 294 294 294 293 294 295 297 297 295 293 290 290 291 292 291 286 281 277 274 273 270 267 266 265 265 265 266 267 270 273 274 272 270 270 272 274 275 276 277 280 281 282 281 281 281 279 277 282 286 287 284 280 278 276 274 274 275 275 275 274 273 272 269 266 263 261 259 257 256 257
294 295 296 298 301 302 303 303 302 301 300 298 296 296 296 296 296 296 295 294 294 295 296 297 296 293 290 290 292 294 295 295 293 289 283 278 276 275 273 272 271 271 268 266 266 268 272 273 274 274 274 273 273 273 275 277 279 280 280 280 279 277 274 278 281 283 282 280 278 275 273 273 275 277 276 274 272 270 268 267 266 265 262 257 256 257
296 298 300 302 302 302 301 302 301 301 298 296 296 296 297 298 298 296 294 294 294 294 294 294 293 290 289 292 295 297 298 298 297 296 293 288 283 279 275 273 272 272 270 268 265 264 265 268 273 277 279 277 275 273 273 275 277 279 280 280 280 279 277 277 277 277 278 278 278 277 275 275 275 275 275 275 275 274 271 270 270 269 267 263 260 258
299 301 302 303 302 301 300 301 301 300 298 297 297 297 299 299 298 297 294 294 294 294 294 293 290 287 286 289 293 296 297 298 298 298 297 296 293 289 284 280 276 274 273 271 270 268 267 266 269 272 276 277 277 276 274 274 274 276 278 279 280 279 278 277 277 276 277 277 277 278 279 279 278 276 276 277 278 277 275 273 270 268 266 263 261 259
302 303 303 303 302 301 300 300 300 299 298 298 298 298 298 299 299 299 297 297 296 295 295 293 291 288 287 288 289 291 293 294 295 296 296 296 296 294 291 289 286 282 279 276 274 273 271 268 265 265 266 268 271 273 275 274 274 274 275 277 278 278 277 277 277 278 278 277 277 278 280 280 280 279 281 281 280 278 277 276 273 269 265 261 259 258
303 303 302 301 300 299 299 300 299 299 298 298 298 298 298 298 299 299 297 297 296 294 292 291 290 290 289 289 289 290 291 291 291 291 292 294 295 295 294 293 292 290 287 283 280 276 273 269 263 257 254 256 260 266 270 272 273 273 274 275 276 276 277 279 280 281 282 281 280 278 276 275 275 277 279 280 280 279 280 278 276 271 265 259 256 255
301 300 299 299 298 297 297 298 299 298 298 298 298 298 298 299 299 297 295 294 293 291 289 289 289 289 289 290 290 290 291 290 290 290 291 292 294 295 295 294 294 293 293 290 287 284 282 276 267 258 250 251 254 260 266 270 273 274 275 275 276 278 280 282 284 285 285 284 283 280 277 274 273 272 273 274 276 278 280 279 277 273 268 261 257 255
301 299 298 297 297 296 296 297 297 297 296 296 296 297 298 298 298 297 295 294 292 290 288 287 287 287 288 289 289 290 290 290 290 291 291 293 294 295 294 294 294 294 294 293 293 292 291 289 284 276 264 260 260 262 267 272 276 279 280 280 281 282 284 284 285 286 286 285 284 281 278 275 272 269 267 269 273 276 279 278 277 275 272 268 263 260